Arlington, TX

1:37 AM CDT on May 23, 2017 (GMT -0500)
Arlington Municipal

Weather History for KGKY - November, 2013

Change the Weather History Date:

Wednesday, November 6, 2013

  Actual Average (KRBD) Record (KRBD)
Temperature  
Mean Temperature 58 °F -  
Max Temperature 71 °F 65 °F 80 °F (2004)
Min Temperature 42 °F 48 °F 36 °F (2010)
Degree Days  
Heating Degree Days 7    
Growing Degree Days 8 (Base 50)    
Moisture  
Dew Point 47 °F    
Average Humidity 76    
Maximum Humidity 93    
Minimum Humidity 49    
Precipitation  
Precipitation 0.17 in - - ()
Sea Level Pressure  
Sea Level Pressure 30.18 in    
Wind  
Wind Speed 11 mph (NW)    
Max Wind Speed 18 mph    
Max Gust Speed 26 mph    
Visibility 10 miles    
Events Rain    
Averages and records for this station are not official NWS values.
T = Trace of Precipitation, MM = Missing Value Source: NWS Daily Summary

Daily Weather History Graph

Daily Weather History Graph

Search for Another Location

Airport or City:

Trip Planner

Search our weather history database for the weather conditions in past years. The results will help you decide how hot, cold, wet, or windy it might be!

Date:

Astronomy

Nov. 06, 2013 Rise Set
Actual Time 6:50 AM CST 5:33 PM CST
Civil Twilight 6:24 AM CST 5:58 PM CST
Nautical Twilight 5:55 AM CST 6:28 PM CST
Astronomical Twilight 5:26 AM CST 6:57 PM CST
Moon 10:02 AM CST (11/6) 8:42 PM CST (11/6)
Length of Visible Light 11h 33m
Length of Day
10h 42m
Waxing Crescent, 14% of the Moon is Illuminated
Nov 6
Waxing Crescent
Nov 9
First Quarter
Nov 17
Full
Nov 25
Last Quarter
Dec 2
New

Hourly Weather History & Observations

Time (CST) Temp. Windchill Dew Point Humidity Pressure Visibility Wind Dir Wind Speed Gust Speed Precip Events Conditions
12:53 AM 70.0 °F - 66.9 °F 90% 29.96 in 10.0 mi South 8.1 mph 17.3 mph N/A   Overcast
1:53 AM 71.1 °F - 66.9 °F 87% 29.94 in 10.0 mi South 6.9 mph - N/A   Overcast
2:53 AM 71.1 °F - 66.9 °F 87% 29.96 in 10.0 mi South 6.9 mph - N/A   Overcast
3:53 AM 70.0 °F - 68.0 °F 93% 29.96 in 10.0 mi South 5.8 mph - N/A   Overcast
4:22 AM 64.4 °F - 60.8 °F 88% 30.01 in 10.0 mi NW 16.1 mph 19.6 mph N/A   Overcast
4:53 AM 59.0 °F - 57.0 °F 93% 30.03 in 4.0 mi WNW 11.5 mph 18.4 mph 0.11 in Rain Heavy Rain
5:53 AM 54.0 °F - 52.0 °F 93% 30.07 in 10.0 mi NNW 15.0 mph - 0.05 in Rain Light Rain
6:53 AM 51.1 °F - 48.9 °F 92% 30.10 in 10.0 mi NW 17.3 mph 21.9 mph 0.01 in   Overcast
7:26 AM 51.8 °F - 48.2 °F 88% 30.14 in 10.0 mi NW 13.8 mph - N/A   Overcast
7:53 AM 50.0 °F - 46.9 °F 89% 30.14 in 10.0 mi NW 17.3 mph 24.2 mph N/A   Overcast
8:53 AM 48.9 °F - 44.1 °F 83% 30.18 in 10.0 mi NW 17.3 mph 26.5 mph N/A   Overcast
9:39 AM 51.8 °F - 44.6 °F 76% 30.21 in 10.0 mi NNW 17.3 mph - N/A   Overcast
9:53 AM 50.0 °F - 44.1 °F 80% 30.20 in 10.0 mi NW 16.1 mph 25.3 mph N/A   Overcast
10:53 AM 50.0 °F - 43.0 °F 77% 30.23 in 10.0 mi NW 13.8 mph - N/A   Overcast
11:29 AM 50.0 °F - 42.8 °F 76% 30.26 in 10.0 mi NW 18.4 mph - N/A   Partly Cloudy
11:53 AM 51.1 °F - 42.1 °F 71% 30.24 in 10.0 mi NW 18.4 mph 24.2 mph N/A   Clear
12:53 PM 53.1 °F - 43.0 °F 69% 30.23 in 10.0 mi WNW 17.3 mph 21.9 mph N/A   Clear
1:53 PM 53.1 °F - 42.1 °F 66% 30.23 in 10.0 mi NW 16.1 mph - N/A   Clear
2:53 PM 57.0 °F - 42.1 °F 57% 30.24 in 10.0 mi NNW 12.7 mph - N/A   Clear
3:53 PM 59.0 °F - 39.9 °F 49% 30.24 in 10.0 mi NW 12.7 mph - N/A   Clear
4:53 PM 57.9 °F - 39.9 °F 51% 30.25 in 10.0 mi NNW 13.8 mph - N/A   Clear
5:53 PM 55.0 °F - 39.9 °F 57% 30.26 in 10.0 mi NW 10.4 mph - N/A   Clear
6:53 PM 51.1 °F - 41.0 °F 68% 30.30 in 10.0 mi NNW 8.1 mph - N/A   Clear
7:53 PM 51.1 °F - 39.0 °F 63% 30.32 in 10.0 mi NW 9.2 mph - N/A   Clear
8:53 PM 48.9 °F - 39.0 °F 69% 30.34 in 10.0 mi NW 9.2 mph - N/A   Clear
9:53 PM 46.9 °F - 37.9 °F 71% 30.35 in 10.0 mi NNW 6.9 mph - N/A   Clear
10:53 PM 45.0 °F 41.8 °F 37.9 °F 76% 30.37 in 10.0 mi NNW 5.8 mph - N/A   Clear
11:53 PM 42.1 °F 39.2 °F 37.0 °F 82% 30.37 in 10.0 mi NW 4.6 mph - N/A   Clear